GW0383 Weather Reports


time (UTC)temp
C
wind
direction
speed
KPH
gust
KPH
rain 1hr
cm
rain 24hr
cm
rain mn
cm
humidity
%
barometer
mb
20260507201715 18 155 0.0 4.8 0.00 0.46 0.46 58 1003.7
20260507201212 17 137 0.0 4.8 0.00 0.46 0.46 59 1003.9
20260507200708 17 213 4.8 9.7 0.00 0.46 0.46 60 1003.8
20260507200204 18 125 1.6 3.2 0.00 0.46 0.46 62 1004.0
20260507195701 17 177 0.0 4.8 0.00 0.46 0.46 59 1003.8
20260507195158 17 131 1.6 4.8 0.00 0.46 0.46 56 1004.0
20260507194655 18 167 0.0 1.6 0.00 0.46 0.46 57 1004.0
20260507194150 17 153 1.6 3.2 0.00 0.46 0.46 58 1004.1
20260507193648 18 176 0.0 3.2 0.00 0.46 0.46 57 1004.2
20260507193145 18 175 1.6 4.8 0.00 0.46 0.46 55 1004.3
20260507192641 17 155 1.6 4.8 0.00 0.46 0.46 55 1004.5
20260507192138 18 176 1.6 8.0 0.00 0.46 0.46 56 1004.6
20260507191633 18 120 1.6 3.2 0.00 0.46 0.46 57 1004.6
20260507191130 17 123 0.0 1.6 0.00 0.46 0.46 56 1004.6
20260507190628 17 117 1.6 3.2 0.00 0.46 0.46 58 1004.3
20260507190127 17 169 4.8 4.8 0.00 0.46 0.46 61 1004.5
20260507185625 17 133 0.0 3.2 0.00 0.46 0.46 60 1004.6
20260507185120 17 126 0.0 3.2 0.00 0.46 0.46 63 1004.3
20260507184619 16 123 1.6 3.2 0.00 0.46 0.46 60 1004.5
20260507184116 16 97 1.6 3.2 0.00 0.46 0.46 62 1004.6
20260507183612 16 106 3.2 3.2 0.00 0.46 0.46 56 1004.8
20260507183109 16 123 0.0 3.2 0.00 0.46 0.46 58 1004.7
20260507182606 17 120 0.0 1.6 0.00 0.46 0.46 56 1005.0
20260507182102 17 127 0.0 3.2 0.00 0.46 0.46 56 1005.0
20260507181559 17 171 1.6 3.2 0.00 0.46 0.46 51 1004.8
20260507181055 17 146 0.0 3.2 0.00 0.46 0.46 58 1005.0
20260507180551 16 100 3.2 3.2 0.00 0.46 0.46 56 1004.9
20260507180048 15 131 0.0 1.6 0.00 0.46 0.46 60 1004.9
20260507175544 16 91 1.6 3.2 0.00 0.46 0.46 60 1005.3
20260507175042 15 161 1.6 3.2 0.00 0.46 0.46 59 1005.2
20260507174539 16 144 0.0 1.6 0.00 0.46 0.46 64 1005.4
20260507174037 15 150 1.6 3.2 0.00 0.46 0.46 57 1005.1
20260507173533 15 123 0.0 1.6 0.00 0.46 0.46 58 1005.2
20260507173031 16 199 0.0 1.6 0.00 0.46 0.46 58 1005.5
20260507172526 15 126 0.0 0.0 0.00 0.46 0.46 56 1005.9
20260507172024 15 126 0.0 3.2 0.00 0.46 0.46 57 1006.1
20260507171519 15 139 0.0 3.2 0.00 0.46 0.46 59 1005.5
20260507171017 16 111 1.6 3.2 0.00 0.46 0.46 56 1005.6
20260507170513 15 137 0.0 1.6 0.00 0.46 0.46 57 1005.9
20260507170010 15 155 1.6 1.6 0.00 0.46 0.46 56 1006.0
20260507165506 13 78 3.2 3.2 0.00 0.46 0.46 58 1005.9
20260507165003 15 82 3.2 3.2 0.00 0.46 0.46 63 1006.2
20260507164459 13 149 0.0 0.0 0.00 0.46 0.46 67 1006.0
20260507163955 13 112 0.0 0.0 0.00 0.46 0.46 70 1006.6
20260507163453 12 114 0.0 0.0 0.00 0.46 0.46 68 1006.6
20260507162950 12 114 0.0 0.0 0.00 0.46 0.46 67 1007.1
20260507162445 12 124 0.0 0.0 0.00 0.46 0.46 68 1007.1
20260507161943 12 124 0.0 0.0 0.00 0.46 0.46 71 1007.1
20260507161439 12 124 0.0 0.0 0.00 0.46 0.46 69 1007.0
20260507160935 12 123 0.0 0.0 0.00 0.46 0.46 68 1006.9
20260507160432 11 124 0.0 0.0 0.00 0.46 0.46 72 1007.1
20260507155927 11 124 0.0 0.0 0.00 0.46 0.46 73 1006.9
20260507155424 11 123 0.0 0.0 0.00 0.46 0.46 70 1007.1
20260507154921 11 117 0.0 0.0 0.00 0.46 0.46 70 1007.0
20260507154417 11 115 0.0 1.6 0.00 0.46 0.46 71 1007.1
20260507153915 11 110 0.0 1.6 0.00 0.46 0.46 76 1007.0
20260507153412 11 109 0.0 1.6 0.00 0.46 0.46 73 1006.8
20260507152908 11 117 0.0 1.6 0.00 0.46 0.46 73 1007.0
20260507152404 10 93 1.6 3.2 0.00 0.46 0.46 76 1006.9
20260507151900 10 122 0.0 0.0 0.00 0.46 0.46 74 1007.2
20260507151356 10 107 0.0 0.0 0.00 0.46 0.46 76 1007.1
20260507150854 10 108 0.0 0.0 0.00 0.46 0.46 74 1007.2
20260507150350 10 114 0.0 0.0 0.00 0.46 0.46 73 1007.2
20260507145847 10 114 0.0 0.0 0.00 0.46 0.46 73 1007.2
20260507145343 10 113 0.0 0.0 0.00 0.46 0.46 75 1007.3
20260507144840 10 109 0.0 0.0 0.00 0.46 0.46 76 1007.2
20260507144337 10 110 0.0 0.0 0.00 0.46 0.46 77 1007.7
20260507143834 10 110 0.0 0.0 0.00 0.46 0.46 76 1007.9
20260507143331 10 110 0.0 0.0 0.00 0.46 0.46 76 1007.7
20260507142827 10 126 0.0 0.0 0.00 0.46 0.46 78 1007.7
20260507142323 10 113 0.0 0.0 0.00 0.46 0.46 79 1008.1
20260507141820 10 103 1.6 3.2 0.00 0.46 0.46 77 1007.9
20260507141317 10 113 0.0 0.0 0.00 0.46 0.46 78 1008.0
20260507140814 10 107 0.0 1.6 0.00 0.46 0.46 79 1008.2
20260507140310 10 115 1.6 3.2 0.00 0.46 0.46 78 1008.1
20260507135808 10 112 0.0 0.0 0.00 0.46 0.46 79 1008.0
20260507135306 10 126 0.0 8.0 0.00 0.46 0.46 74 1008.0
20260507134802 10 94 0.0 4.8 0.00 0.46 0.46 77 1008.0
20260507134258 10 104 1.6 8.0 0.00 0.46 0.46 75 1008.0
20260507133754 9 118 1.6 4.8 0.00 0.46 0.46 77 1008.0
20260507133250 9 119 1.6 4.8 0.00 0.46 0.46 77 1008.1
20260507132749 9 128 0.0 4.8 0.00 0.46 0.46 78 1008.1
20260507132245 9 200 3.2 3.2 0.00 0.46 0.46 80 1008.1
20260507131742 10 147 0.0 11.3 0.00 0.46 0.46 78 1007.9
20260507131239 10 134 0.0 8.0 0.00 0.46 0.46 78 1008.1
20260507130735 10 120 0.0 4.8 0.00 0.46 0.46 79 1008.1
20260507130233 10 117 1.6 4.8 0.00 0.46 0.46 80 1008.1
20260507125731 10 105 1.6 9.7 0.00 0.46 0.46 83 1008.0
20260507125229 10 117 0.0 1.6 0.00 0.46 0.46 84 1008.1
20260507124725 10 127 0.0 4.8 0.00 0.46 0.46 84 1008.1
20260507124222 10 125 0.0 1.6 0.00 0.46 0.46 84 1007.9
20260507123721 10 109 1.6 3.2 0.00 0.46 0.46 84 1007.9
20260507123218 10 109 0.0 4.8 0.00 0.46 0.46 81 1008.2
20260507122713 10 152 1.6 3.2 0.00 0.46 0.46 83 1007.8
20260507122209 10 126 0.0 0.0 0.00 0.46 0.46 86 1007.6
20260507121705 10 120 1.6 4.8 0.00 0.46 0.46 83 1007.3
20260507121201 10 114 0.0 4.8 0.00 0.46 0.46 86 1007.8
20260507120657 10 128 0.0 3.2 0.00 0.46 0.46 86 1007.3
20260507120154 10 120 0.0 3.2 0.00 0.46 0.46 88 1007.4
20260507115651 10 183 1.6 3.2 0.00 0.46 0.46 86 1007.6
20260507115146 10 119 0.0 3.2 0.00 0.46 0.46 89 1007.4
20260507114642 10 135 1.6 3.2 0.00 0.46 0.46 90 1007.4
20260507114140 10 128 0.0 1.6 0.00 0.46 0.46 90 1007.4
20260507113637 10 107 1.6 3.2 0.00 0.46 0.46 89 1007.6
20260507113133 10 118 1.6 3.2 0.00 0.46 0.46 89 1007.6
20260507112632 10 123 0.0 3.2 0.00 0.46 0.46 89 1007.3
20260507112128 10 117 1.6 1.6 0.00 0.46 0.46 89 1007.2
20260507111625 10 117 0.0 0.0 0.00 0.46 0.46 89 1007.1
20260507111122 10 112 0.0 0.0 0.00 0.46 0.46 90 1007.1
20260507110618 10 114 0.0 1.6 0.00 0.46 0.46 89 1006.9
20260507110115 10 115 0.0 3.2 0.00 0.46 0.46 90 1007.0
20260507105612 10 113 0.0 3.2 0.00 0.46 0.46 90 1006.9
20260507105107 10 108 0.0 0.0 0.00 0.46 0.46 90 1006.7
20260507104606 10 120 1.6 1.6 0.00 0.46 0.46 89 1006.9
20260507104102 10 109 0.0 3.2 0.00 0.46 0.46 90 1006.8
20260507103558 10 108 0.0 0.0 0.00 0.46 0.46 89 1007.1
20260507103055 10 120 0.0 0.0 0.00 0.46 0.46 89 1006.9
20260507102551 10 105 0.0 0.0 0.00 0.46 0.46 88 1006.8
20260507102047 10 140 0.0 0.0 0.00 0.46 0.46 86 1006.7
20260507101542 10 119 0.0 1.6 0.00 0.46 0.46 83 1006.7
20260507101039 10 116 0.0 0.0 0.00 0.46 0.46 83 1006.4
20260507100537 10 120 0.0 1.6 0.00 0.46 0.46 83 1006.8
20260507100035 10 119 0.0 0.0 0.00 0.46 0.46 83 1006.6
20260507095532 10 105 0.0 1.6 0.00 0.46 0.46 84 1006.5
20260507095029 10 128 1.6 1.6 0.00 0.46 0.46 83 1006.3
20260507094525 10 115 0.0 1.6 0.00 0.46 0.46 83 1006.4
20260507094022 11 95 1.6 1.6 0.00 0.46 0.46 82 1006.3
20260507093519 11 141 0.0 3.2 0.00 0.46 0.46 80 1006.3
20260507093018 11 136 1.6 4.8 0.00 0.46 0.46 80 1006.4
20260507092514 11 136 1.6 8.0 0.00 0.46 0.46 79 1006.1
20260507092011 11 123 0.0 3.2 0.00 0.46 0.46 80 1006.1
20260507091508 11 130 0.0 1.6 0.00 0.46 0.46 82 1006.4
20260507091004 11 135 0.0 0.0 0.00 0.46 0.46 83 1006.4
20260507090500 11 137 0.0 8.0 0.00 0.46 0.46 83 1006.1
20260507085956 11 147 1.6 4.8 0.00 0.46 0.46 83 1006.3
20260507085454 11 137 0.0 8.0 0.00 0.46 0.46 84 1006.0
20260507084950 11 144 1.6 3.2 0.00 0.46 0.46 84 1006.0
20260507084447 10 155 1.6 8.0 0.00 0.46 0.46 86 1005.7
20260507083944 10 149 1.6 3.2 0.00 0.46 0.46 87 1006.1
20260507083440 10 132 0.0 9.7 0.00 0.46 0.46 88 1006.1
20260507082937 10 137 0.0 4.8 0.00 0.46 0.46 87 1006.2
20260507082433 10 157 1.6 4.8 0.00 0.46 0.46 88 1006.4
20260507081930 10 111 0.0 1.6 0.00 0.46 0.46 88 1006.1
20260507081426 10 120 0.0 3.2 0.00 0.46 0.46 88 1006.7
20260507080923 10 166 1.6 12.9 0.00 0.46 0.46 87 1006.1
20260507080419 10 110 1.6 12.9 0.00 0.46 0.46 86 1005.8
20260507075914 10 199 6.4 12.9 0.00 0.46 0.46 90 1005.7
20260507075411 10 202 3.2 11.3 0.00 0.46 0.46 91 1005.7
20260507074908 10 148 6.4 8.0 0.00 0.46 0.46 91 1005.8
20260507074404 10 146 1.6 11.3 0.00 0.46 0.46 92 1005.8
20260507073902 10 208 3.2 14.5 0.00 0.46 0.46 95 1005.4
20260507073358 10 157 3.2 4.8 0.00 0.46 0.46 96 1005.5
20260507072855 10 163 6.4 9.7 0.00 0.46 0.46 97 1005.1
20260507072353 10 115 0.0 1.6 0.00 0.46 0.46 97 1005.3
20260507071850 10 127 0.0 0.0 0.00 0.46 0.46 98 1005.6
20260507071348 10 143 0.0 3.2 0.00 0.46 0.46 98 1005.2
20260507070843 10 114 0.0 9.7 0.00 0.46 0.46 98 1005.2
20260507070341 10 107 0.0 4.8 0.00 0.46 0.46 99 1004.9
20260507065838 10 112 0.0 3.2 0.00 0.46 0.46 99 1005.0
20260507065334 10 95 1.6 3.2 0.00 0.46 0.46 99 1005.2
20260507064831 10 131 1.6 1.6 0.00 0.46 0.46 99 1005.2
20260507064330 10 117 0.0 3.2 0.00 0.46 0.46 99 1005.4
20260507063827 10 86 1.6 3.2 0.00 0.46 0.46 99 1005.5
20260507063324 10 108 0.0 4.8 0.00 0.46 0.46 99 1005.4
20260507062821 11 92 1.6 3.2 0.00 0.46 0.46 99 1005.6
20260507062318 11 108 1.6 3.2 0.00 0.46 0.46 99 1005.2
20260507061816 11 101 3.2 3.2 0.00 0.46 0.46 99 1005.4
20260507061313 11 90 1.6 3.2 0.00 0.46 0.46 99 1005.5
20260507060812 11 78 0.0 3.2 0.18 0.46 0.46 99 1005.5
20260507060308 11 131 1.6 9.7 0.18 0.46 0.46 99 1005.3
20260507055805 11 105 1.6 8.0 0.13 0.43 0.43 99 1005.5
20260507055300 11 105 1.6 3.2 0.30 0.43 0.43 99 1006.0
20260507054756 11 106 0.0 3.2 0.18 0.41 0.41 99 1005.7
20260507054253 11 98 1.6 8.0 0.00 0.38 0.38 99 1005.4
20260507053751 11 140 6.4 9.7 0.00 0.38 0.38 99 1005.2
20260507053248 11 78 1.6 8.0 0.00 0.38 0.38 99 1005.3
20260507052747 11 61 1.6 4.8 0.00 0.38 0.38 99 1005.2
20260507052243 11 70 1.6 3.2 0.00 0.38 0.38 99 1005.3
20260507051741 11 81 1.6 4.8 0.00 0.38 0.38 99 1005.2
20260507051237 11 121 0.0 3.2 0.13 0.38 0.38 99 1005.1
20260507050734 11 90 1.6 3.2 0.00 0.36 0.36 99 1005.1
20260507050231 12 100 1.6 4.8 0.00 0.36 0.36 99 1005.1
20260507045728 12 76 3.2 3.2 0.00 0.36 0.36 99 1005.0
20260507045224 12 85 1.6 3.2 0.00 0.36 0.36 99 1004.3
20260507044722 12 65 1.6 4.8 0.00 0.36 0.36 99 1004.7
20260507044218 12 77 3.2 3.2 0.00 0.36 0.36 99 1004.8
20260507043714 12 93 1.6 3.2 0.18 0.36 0.36 99 1004.6
20260507043211 12 100 0.0 1.6 0.18 0.36 0.36 99 1004.7
20260507042708 13 113 1.6 3.2 0.30 0.33 0.33 99 1005.0
20260507042202 13 76 3.2 4.8 1.98 0.33 0.33 99 1004.8
20260507041700 13 100 1.6 8.0 1.50 0.25 0.25 99 1004.0
20260507041156 13 156 1.6 3.2 0.00 0.00 0.00 99 1006.0
20260507040653 13 98 0.0 0.0 0.00 0.00 0.00 99 1005.6
20260507040149 13 98 0.0 1.6 0.00 0.00 0.00 99 1005.4
20260507035646 13 89 1.6 3.2 0.00 1.24 1.24 99 1005.2
20260507035142 13 95 0.0 0.0 0.00 1.24 1.24 99 1005.2
20260507034639 13 73 1.6 3.2 0.18 1.24 1.24 98 1005.3
20260507034136 13 104 0.0 1.6 0.48 1.24 1.24 98 1005.7
20260507033635 13 98 1.6 1.6 0.61 1.22 1.22 98 1005.5
20260507033131 14 132 0.0 0.0 0.43 1.17 1.17 98 1005.5
20260507032629 14 169 1.6 3.2 0.00 1.09 1.09 98 1005.6
20260507032124 14 97 1.6 4.8 0.00 1.09 1.09 98 1004.9
20260507031622 14 154 4.8 9.7 0.00 1.09 1.09 98 1004.9
20260507031118 14 74 3.2 3.2 0.00 1.09 1.09 98 1004.7
20260507030615 15 73 1.6 3.2 0.00 1.09 1.09 98 1004.9
20260507030113 15 96 1.6 1.6 0.00 1.09 1.09 98 1005.0
20260507025610 15 97 1.6 3.2 0.00 1.09 1.09 98 1004.9
20260507025107 15 71 4.8 4.8 0.00 1.09 1.09 98 1004.8
20260507024605 15 88 3.2 3.2 0.00 1.09 1.09 98 1004.8
20260507024102 15 72 3.2 4.8 0.00 1.09 1.09 98 1005.0
20260507023557 15 141 1.6 3.2 0.00 1.09 1.09 98 1004.8
20260507023055 15 89 3.2 4.8 0.00 1.09 1.09 98 1004.3
20260507022551 15 96 1.6 3.2 0.00 1.09 1.09 98 1004.7
20260507022046 15 99 0.0 1.6 0.00 1.09 1.09 98 1004.7
20260507021543 15 87 1.6 3.2 0.00 1.09 1.09 98 1004.5
20260507021040 15 84 0.0 3.2 0.00 1.09 1.09 98 1004.5
20260507020538 15 84 1.6 3.2 0.00 1.09 1.09 98 1004.8
20260507020034 15 85 1.6 3.2 0.00 1.09 1.09 98 1004.7
20260507015532 16 87 0.0 1.6 0.00 1.09 1.09 98 1004.7
20260507015029 16 90 0.0 3.2 0.00 1.09 1.09 98 1004.7
20260507014526 16 84 0.0 0.0 0.00 1.09 1.09 98 1004.7
20260507014021 16 88 0.0 0.0 0.00 1.09 1.09 98 1004.2
20260507013518 16 79 3.2 3.2 0.00 1.09 1.09 98 1003.8
20260507013016 16 89 0.0 1.6 0.00 1.09 1.09 97 1004.3
20260507012513 16 84 1.6 1.6 0.00 1.09 1.09 97 1004.6
20260507012009 16 94 0.0 0.0 0.00 1.09 1.09 97 1004.9
20260507011506 16 105 0.0 0.0 0.18 1.09 1.09 97 1004.7
20260507011002 16 98 0.0 0.0 0.18 1.09 1.09 97 1004.6
20260507010456 16 102 1.6 1.6 0.00 1.07 1.07 97 1004.9
20260507005954 17 110 1.6 3.2 0.00 1.07 1.07 96 1005.1
20260507005451 17 107 0.0 1.6 0.00 1.07 1.07 96 1005.0
20260507004947 17 140 0.0 0.0 0.30 1.07 1.07 96 1004.9
20260507004444 17 140 0.0 3.2 0.71 1.07 1.07 96 1004.6
20260507003942 17 138 0.0 0.0 1.50 1.02 1.02 96 1004.5
20260507003437 17 123 0.0 0.0 1.50 0.91 0.91 95 1004.3
20260507002932 17 143 0.0 3.2 0.79 0.74 0.74 95 1004.5
20260507002428 17 191 3.2 4.8 0.48 0.64 0.64 94 1004.3
20260507001926 17 155 1.6 1.6 1.19 0.61 0.61 93 1004.1
20260507001422 17 116 0.0 0.0 0.71 0.51 0.51 91 1003.8
20260507000920 17 143 1.6 4.8 0.13 0.41 0.41 89 1004.0
20260507000415 17 118 0.0 0.0 0.00 0.38 0.38 90 1003.9
20260506235911 17 127 0.0 1.6 0.00 0.38 0.38 90 1003.7
20260506235409 17 142 0.0 4.8 0.00 0.38 0.38 91 1004.2
20260506234904 17 178 1.6 3.2 0.00 0.38 0.38 90 1004.2
20260506234402 18 206 6.4 8.0 0.18 0.38 0.38 88 1004.1
20260506233859 18 172 1.6 4.8 0.00 0.36 0.36 86 1003.8
20260506233355 18 167 3.2 4.8 0.00 0.36 0.36 86 1003.8
20260506232852 18 136 0.0 0.0 0.00 0.36 0.36 85 1003.8
20260506232348 18 164 1.6 3.2 0.00 0.36 0.36 84 1003.7
20260506231844 19 151 0.0 0.0 0.00 0.36 0.36 83 1003.6
20260506231342 19 142 0.0 0.0 0.00 0.36 0.36 82 1003.6
20260506230840 19 136 0.0 0.0 0.00 0.36 0.36 82 1003.2
20260506230336 19 164 0.0 1.6 0.00 0.36 0.36 82 1003.2
20260506225832 19 147 0.0 1.6 0.00 0.36 0.36 82 1003.3
20260506225330 19 139 0.0 4.8 0.00 0.36 0.36 82 1003.5
20260506224826 19 121 0.0 3.2 0.00 0.36 0.36 82 1003.5
20260506224324 19 186 1.6 3.2 0.00 0.36 0.36 82 1003.3
20260506223820 19 137 1.6 3.2 0.00 0.36 0.36 82 1003.5
20260506223315 19 118 3.2 8.0 0.00 0.36 0.36 82 1003.3
20260506222813 19 169 3.2 3.2 0.00 0.36 0.36 82 1003.4
20260506222308 20 130 0.0 4.8 0.00 0.36 0.36 81 1003.3
20260506221807 20 144 0.0 1.6 0.00 0.36 0.36 81 1003.0
20260506221304 20 142 0.0 1.6 0.00 0.36 0.36 82 1003.1
20260506220801 20 122 0.0 1.6 0.00 0.36 0.36 81 1003.5
20260506220256 20 113 0.0 3.2 0.00 0.36 0.36 81 1003.4
20260506215753 20 170 1.6 4.8 0.00 0.36 0.36 80 1003.4
20260506215249 20 111 1.6 3.2 0.00 0.36 0.36 78 1003.0
20260506214745 20 105 0.0 3.2 0.00 0.36 0.36 79 1003.2
20260506214242 20 120 0.0 1.6 0.00 0.36 0.36 81 1002.9
20260506213740 20 165 1.6 3.2 0.00 0.36 0.36 80 1003.2
20260506213232 20 164 0.0 3.2 0.00 0.36 0.36 80 1002.9
20260506212729 20 141 0.0 1.6 0.00 0.36 0.36 80 1003.2
20260506212224 20 113 0.0 1.6 0.00 0.36 0.36 81 1003.0
20260506211720 20 85 0.0 1.6 0.00 0.36 0.36 81 1003.2
20260506211216 20 140 0.0 1.6 0.00 0.36 0.36 82 1003.2
20260506210713 19 146 0.0 1.6 0.00 0.36 0.36 82 1003.2
20260506210210 19 166 1.6 3.2 0.00 0.36 0.36 83 1003.1
20260506205707 18 167 1.6 8.0 0.00 0.36 0.36 83 1003.0
20260506205202 18 144 0.0 4.8 0.00 0.36 0.36 84 1003.0
20260506204700 18 101 0.0 3.2 0.00 0.36 0.36 83 1002.8
20260506204156 18 131 0.0 3.2 0.00 0.36 0.36 85 1002.8
20260506203655 18 121 1.6 1.6 0.00 0.36 0.36 83 1002.8
20260506203152 18 146 4.8 8.0 0.00 0.36 0.36 83 1002.9
20260506202650 18 143 1.6 4.8 0.00 0.36 0.36 83 1002.8
20260506202145 19 224 8.0 9.7 0.00 0.36 0.36 81 1002.8